Wetterdaten: Donnerstag, 04.07.2013
Datum Zeit Temperatur Luftfeuchte Luftdruck Regen Wind Richtung Richtung Taupunkt Windchill Windben
04.07.2013 00:00 12,1 C 95 % 1020,1 hPa 0,0 l/m 0,0 km/h (0 Bft) NW 315 11,3 C 12,1 C 0,0 km/h (0 Bft)
04.07.2013 00:05 12,1 C 95 % 1020,2 hPa 0,0 l/m 0,0 km/h (0 Bft) S 180 11,3 C 12,1 C 0,0 km/h (0 Bft)
04.07.2013 00:10 12,1 C 95 % 1020,2 hPa 0,0 l/m 0,0 km/h (0 Bft) O-SO 112 11,3 C 12,1 C 0,0 km/h (0 Bft)
04.07.2013 00:15 12,2 C 95 % 1020,2 hPa 0,0 l/m 0,0 km/h (0 Bft) O-SO 112 11,4 C 12,1 C 0,0 km/h (0 Bft)
04.07.2013 00:20 12,2 C 95 % 1020,2 hPa 0,0 l/m 0,0 km/h (0 Bft) O-SO 112 11,4 C 12,1 C 0,0 km/h (0 Bft)
04.07.2013 00:25 12,2 C 95 % 1020,2 hPa 0,0 l/m 0,0 km/h (0 Bft) S-SO 157 11,4 C 12,1 C 0,0 km/h (0 Bft)
04.07.2013 00:30 12,3 C 95 % 1020,2 hPa 0,0 l/m 0,3 km/h (0 Bft) NO 45 11,5 C 12,2 C 3,1 km/h (1 Bft)
04.07.2013 00:35 12,3 C 95 % 1020,2 hPa 0,0 l/m 0,3 km/h (0 Bft) NO 45 11,5 C 12,2 C 1,6 km/h (1 Bft)
04.07.2013 00:40 12,4 C 95 % 1020,2 hPa 0,0 l/m 1,1 km/h (1 Bft) N 360 11,6 C 12,3 C 6,4 km/h (2 Bft)
04.07.2013 00:45 12,4 C 96 % 1020,2 hPa 0,0 l/m 1,0 km/h (0 Bft) W-NW 292 11,8 C 12,4 C 0,0 km/h (0 Bft)
04.07.2013 00:50 12,4 C 96 % 1020,2 hPa 0,0 l/m 0,0 km/h (0 Bft) O-SO 112 11,8 C 12,4 C 0,0 km/h (0 Bft)
04.07.2013 00:55 12,4 C 96 % 1020,2 hPa 0,0 l/m 0,2 km/h (0 Bft) O-NO 67 11,8 C 12,3 C 1,9 km/h (1 Bft)
04.07.2013 01:00 12,4 C 96 % 1020,2 hPa 0,0 l/m 0,5 km/h (0 Bft) O-NO 67 11,8 C 12,3 C 0,0 km/h (0 Bft)
04.07.2013 01:05 12,3 C 96 % 1020,6 hPa 0,0 l/m 0,5 km/h (0 Bft) NO 45 11,7 C 12,3 C 0,0 km/h (0 Bft)
04.07.2013 01:10 12,3 C 96 % 1020,6 hPa 0,0 l/m 0,2 km/h (0 Bft) NO 45 11,7 C 12,3 C 0,0 km/h (0 Bft)
04.07.2013 01:15 12,3 C 96 % 1020,6 hPa 0,0 l/m 0,3 km/h (0 Bft) NO 45 11,7 C 12,3 C 0,0 km/h (0 Bft)
04.07.2013 01:20 12,3 C 96 % 1020,6 hPa 0,0 l/m 0,3 km/h (0 Bft) SO 135 11,7 C 12,3 C 0,0 km/h (0 Bft)
04.07.2013 01:25 12,3 C 96 % 1020,6 hPa 0,0 l/m 0,3 km/h (0 Bft) NO 45 11,7 C 12,3 C 2,7 km/h (1 Bft)
04.07.2013 01:30 12,4 C 96 % 1020,6 hPa 0,0 l/m 0,6 km/h (0 Bft) N 360 11,8 C 12,4 C 0,0 km/h (0 Bft)
04.07.2013 01:35 12,4 C 96 % 1020,6 hPa 0,0 l/m 0,5 km/h (0 Bft) O-SO 112 11,8 C 12,4 C 0,0 km/h (0 Bft)
04.07.2013 01:40 12,4 C 96 % 1020,6 hPa 0,0 l/m 0,0 km/h (0 Bft) W-SW 247 11,8 C 12,4 C 0,0 km/h (0 Bft)
04.07.2013 01:45 12,4 C 96 % 1020,5 hPa 0,0 l/m 0,0 km/h (0 Bft) S-SO 157 11,8 C 12,4 C 0,0 km/h (0 Bft)
04.07.2013 01:50 12,4 C 96 % 1020,5 hPa 0,0 l/m 0,2 km/h (0 Bft) S-SO 157 11,8 C 12,4 C 0,0 km/h (0 Bft)
04.07.2013 01:55 12,4 C 96 % 1020,5 hPa 0,0 l/m 0,2 km/h (0 Bft) N-NO 22 11,8 C 12,4 C 0,0 km/h (0 Bft)
04.07.2013 02:00 12,4 C 96 % 1020,5 hPa 0,0 l/m 0,0 km/h (0 Bft) SO 135 11,8 C 12,4 C 0,0 km/h (0 Bft)
04.07.2013 02:05 12,4 C 96 % 1020,6 hPa 0,0 l/m 0,0 km/h (0 Bft) SO 135 11,8 C 12,4 C 0,0 km/h (0 Bft)
04.07.2013 02:10 12,4 C 96 % 1020,6 hPa 0,0 l/m 0,3 km/h (0 Bft) W-SW 247 11,8 C 12,4 C 3,4 km/h (1 Bft)
04.07.2013 02:15 12,4 C 96 % 1020,6 hPa 0,0 l/m 1,1 km/h (1 Bft) W-SW 247 11,8 C 12,4 C 2,6 km/h (1 Bft)
04.07.2013 02:20 12,3 C 96 % 1020,6 hPa 0,0 l/m 1,1 km/h (1 Bft) S 180 11,7 C 12,4 C 0,0 km/h (0 Bft)
04.07.2013 02:25 12,3 C 96 % 1020,6 hPa 0,0 l/m 0,3 km/h (0 Bft) S 180 11,7 C 12,3 C 0,0 km/h (0 Bft)
04.07.2013 02:30 12,3 C 96 % 1020,6 hPa 0,0 l/m 0,0 km/h (0 Bft) S 180 11,7 C 12,3 C 1,6 km/h (1 Bft)
04.07.2013 02:35 12,4 C 96 % 1020,6 hPa 0,0 l/m 0,0 km/h (0 Bft) O 90 11,8 C 12,3 C 0,0 km/h (0 Bft)
04.07.2013 02:40 12,4 C 96 % 1020,6 hPa 0,0 l/m 0,2 km/h (0 Bft) S-SO 157 11,8 C 12,4 C 0,0 km/h (0 Bft)
04.07.2013 02:45 12,5 C 96 % 1020,7 hPa 0,0 l/m 0,3 km/h (0 Bft) O-NO 67 11,9 C 12,4 C 0,0 km/h (0 Bft)
04.07.2013 02:50 12,5 C 96 % 1020,7 hPa 0,0 l/m 1,8 km/h (1 Bft) NO 45 11,9 C 12,4 C 4,2 km/h (1 Bft)
04.07.2013 02:55 12,5 C 96 % 1020,7 hPa 0,0 l/m 2,6 km/h (1 Bft) NO 45 11,9 C 12,4 C 3,1 km/h (1 Bft)
04.07.2013 03:00 12,5 C 96 % 1020,7 hPa 0,0 l/m 3,2 km/h (1 Bft) O 90 11,9 C 12,5 C 4,0 km/h (1 Bft)
04.07.2013 03:05 12,5 C 96 % 1020,6 hPa 0,0 l/m 2,3 km/h (1 Bft) O 90 11,9 C 12,5 C 0,0 km/h (0 Bft)
04.07.2013 03:10 12,5 C 96 % 1020,6 hPa 0,0 l/m 1,6 km/h (1 Bft) O-NO 67 11,9 C 12,6 C 2,9 km/h (1 Bft)
04.07.2013 03:15 12,5 C 96 % 1020,6 hPa 0,0 l/m 1,9 km/h (1 Bft) NO 45 11,9 C 12,5 C 2,7 km/h (1 Bft)
04.07.2013 03:20 12,5 C 96 % 1020,6 hPa 0,0 l/m 2,1 km/h (1 Bft) NO 45 11,9 C 12,5 C 2,6 km/h (1 Bft)
04.07.2013 03:25 12,5 C 96 % 1020,4 hPa 0,0 l/m 1,8 km/h (1 Bft) N-NO 22 11,9 C 12,5 C 0,0 km/h (0 Bft)
04.07.2013 03:30 12,5 C 96 % 1020,4 hPa 0,0 l/m 1,0 km/h (0 Bft) O-NO 67 11,9 C 12,5 C 2,1 km/h (1 Bft)
04.07.2013 03:35 12,5 C 96 % 1020,4 hPa 0,0 l/m 0,5 km/h (0 Bft) O 90 11,9 C 12,5 C 0,0 km/h (0 Bft)
04.07.2013 03:40 12,5 C 96 % 1020,4 hPa 0,0 l/m 0,5 km/h (0 Bft) O 90 11,9 C 12,5 C 0,0 km/h (0 Bft)
04.07.2013 03:45 12,5 C 96 % 1020,6 hPa 0,0 l/m 0,0 km/h (0 Bft) O 90 11,9 C 12,5 C 0,0 km/h (0 Bft)
04.07.2013 03:50 12,5 C 96 % 1020,6 hPa 0,0 l/m 0,0 km/h (0 Bft) O 90 11,9 C 12,5 C 0,0 km/h (0 Bft)
04.07.2013 03:55 12,5 C 96 % 1020,6 hPa 0,0 l/m 0,0 km/h (0 Bft) O-NO 67 11,9 C 12,5 C 2,9 km/h (1 Bft)
04.07.2013 04:00 12,5 C 96 % 1020,6 hPa 0,0 l/m 0,2 km/h (0 Bft) NO 45 11,9 C 12,5 C 0,0 km/h (0 Bft)
04.07.2013 04:05 12,5 C 96 % 1020,8 hPa 0,0 l/m 0,5 km/h (0 Bft) S-SW 202 11,9 C 12,5 C 1,6 km/h (1 Bft)
04.07.2013 04:10 12,5 C 96 % 1020,8 hPa 0,0 l/m 0,3 km/h (0 Bft) NO 45 11,9 C 12,4 C 0,0 km/h (0 Bft)
04.07.2013 04:15 12,5 C 96 % 1020,8 hPa 0,0 l/m 0,2 km/h (0 Bft) O-NO 67 11,9 C 12,4 C 0,0 km/h (0 Bft)
04.07.2013 04:20 12,5 C 96 % 1020,8 hPa 0,0 l/m 0,0 km/h (0 Bft) O-NO 67 11,9 C 12,4 C 0,0 km/h (0 Bft)
04.07.2013 04:25 12,5 C 96 % 1020,7 hPa 0,0 l/m 0,3 km/h (0 Bft) N 360 11,9 C 12,5 C 1,9 km/h (1 Bft)
04.07.2013 04:30 12,5 C 96 % 1020,7 hPa 0,0 l/m 0,2 km/h (0 Bft) N-NO 22 11,9 C 12,5 C 0,0 km/h (0 Bft)
04.07.2013 04:35 12,5 C 96 % 1020,7 hPa 0,0 l/m 0,2 km/h (0 Bft) NO 45 11,9 C 12,5 C 0,0 km/h (0 Bft)
04.07.2013 04:40 12,5 C 96 % 1020,7 hPa 0,0 l/m 0,0 km/h (0 Bft) SO 135 11,9 C 12,5 C 0,0 km/h (0 Bft)
04.07.2013 04:45 12,5 C 96 % 1020,7 hPa 0,0 l/m 0,0 km/h (0 Bft) O-NO 67 11,9 C 12,5 C 0,0 km/h (0 Bft)
04.07.2013 04:50 12,5 C 96 % 1020,7 hPa 0,0 l/m 0,0 km/h (0 Bft) O-NO 67 11,9 C 12,5 C 0,0 km/h (0 Bft)
04.07.2013 04:55 12,5 C 96 % 1020,7 hPa 0,0 l/m 0,0 km/h (0 Bft) S-SW 202 11,9 C 12,5 C 0,0 km/h (0 Bft)
04.07.2013 05:00 12,5 C 96 % 1020,7 hPa 0,0 l/m 0,2 km/h (0 Bft) SO 135 11,9 C 12,5 C 0,0 km/h (0 Bft)
04.07.2013 05:05 12,5 C 96 % 1020,9 hPa 0,0 l/m 0,2 km/h (0 Bft) SO 135 11,9 C 12,5 C 0,0 km/h (0 Bft)
04.07.2013 05:10 12,5 C 96 % 1020,9 hPa 0,0 l/m 0,0 km/h (0 Bft) SW 225 11,9 C 12,5 C 0,0 km/h (0 Bft)
04.07.2013 05:15 12,5 C 96 % 1020,9 hPa 0,0 l/m 0,0 km/h (0 Bft) S-SW 202 11,9 C 12,5 C 0,0 km/h (0 Bft)
04.07.2013 05:20 12,5 C 96 % 1020,9 hPa 0,0 l/m 0,0 km/h (0 Bft) SO 135 11,9 C 12,4 C 0,0 km/h (0 Bft)
04.07.2013 05:25 12,4 C 96 % 1020,9 hPa 0,0 l/m 0,0 km/h (0 Bft) SO 135 11,8 C 12,4 C 0,0 km/h (0 Bft)
04.07.2013 05:30 12,3 C 96 % 1020,9 hPa 0,0 l/m 0,0 km/h (0 Bft) O 90 11,7 C 12,3 C 0,0 km/h (0 Bft)
04.07.2013 05:35 12,3 C 96 % 1020,9 hPa 0,0 l/m 0,0 km/h (0 Bft) O-SO 112 11,7 C 12,2 C 0,0 km/h (0 Bft)
04.07.2013 05:40 12,3 C 96 % 1020,9 hPa 0,0 l/m 0,0 km/h (0 Bft) S-SW 202 11,7 C 12,2 C 0,0 km/h (0 Bft)
04.07.2013 05:45 12,3 C 96 % 1020,9 hPa 0,0 l/m 0,0 km/h (0 Bft) S 180 11,7 C 12,2 C 0,0 km/h (0 Bft)
04.07.2013 05:50 12,4 C 96 % 1020,9 hPa 0,0 l/m 0,0 km/h (0 Bft) W-SW 247 11,8 C 12,3 C 0,0 km/h (0 Bft)
04.07.2013 05:55 12,4 C 96 % 1020,9 hPa 0,0 l/m 0,0 km/h (0 Bft) NO 45 11,8 C 12,3 C 0,0 km/h (0 Bft)
04.07.2013 06:00 12,5 C 96 % 1020,9 hPa 0,0 l/m 0,2 km/h (0 Bft) S-SO 157 11,9 C 12,4 C 0,0 km/h (0 Bft)
04.07.2013 06:05 12,5 C 96 % 1020,9 hPa 0,0 l/m 0,3 km/h (0 Bft) NO 45 11,9 C 12,4 C 0,0 km/h (0 Bft)
04.07.2013 06:10 12,6 C 96 % 1020,9 hPa 0,0 l/m 0,0 km/h (0 Bft) W 270 12,0 C 12,5 C 0,0 km/h (0 Bft)
04.07.2013 06:15 12,6 C 96 % 1020,9 hPa 0,0 l/m 0,0 km/h (0 Bft) W-SW 247 12,0 C 12,5 C 0,0 km/h (0 Bft)
04.07.2013 06:20 12,7 C 96 % 1020,9 hPa 0,0 l/m 0,2 km/h (0 Bft) SO 135 12,1 C 12,7 C 2,3 km/h (1 Bft)
04.07.2013 06:25 12,7 C 96 % 1021,2 hPa 0,0 l/m 0,2 km/h (0 Bft) O 90 12,1 C 12,8 C 0,0 km/h (0 Bft)
04.07.2013 06:30 12,8 C 96 % 1021,2 hPa 0,0 l/m 0,5 km/h (0 Bft) O-NO 67 12,2 C 12,8 C 0,0 km/h (0 Bft)
04.07.2013 06:35 12,8 C 96 % 1021,2 hPa 0,0 l/m 0,3 km/h (0 Bft) N-NO 22 12,2 C 12,9 C 0,0 km/h (0 Bft)
04.07.2013 06:40 12,8 C 96 % 1021,2 hPa 0,0 l/m 0,3 km/h (0 Bft) NO 45 12,2 C 12,9 C 1,9 km/h (1 Bft)
04.07.2013 06:45 13,0 C 95 % 1021,3 hPa 0,0 l/m 0,3 km/h (0 Bft) S-SO 157 12,2 C 13,0 C 1,8 km/h (1 Bft)
04.07.2013 06:50 13,2 C 95 % 1021,3 hPa 0,0 l/m 0,3 km/h (0 Bft) S 180 12,4 C 13,3 C 0,0 km/h (0 Bft)
04.07.2013 06:55 13,3 C 95 % 1021,3 hPa 0,0 l/m 0,2 km/h (0 Bft) S 180 12,5 C 13,5 C 0,0 km/h (0 Bft)
04.07.2013 07:00 13,4 C 95 % 1021,3 hPa 0,0 l/m 0,0 km/h (0 Bft) S 180 12,6 C 13,7 C 0,0 km/h (0 Bft)
04.07.2013 07:05 13,5 C 95 % 1021,4 hPa 0,0 l/m 0,0 km/h (0 Bft) O-NO 67 12,7 C 13,9 C 0,0 km/h (0 Bft)
04.07.2013 07:10 13,5 C 95 % 1021,4 hPa 0,0 l/m 0,0 km/h (0 Bft) N-NO 22 12,7 C 14,0 C 0,0 km/h (0 Bft)
04.07.2013 07:15 13,5 C 95 % 1021,4 hPa 0,0 l/m 0,2 km/h (0 Bft) W 270 12,7 C 14,0 C 1,6 km/h (1 Bft)
04.07.2013 07:20 13,6 C 95 % 1021,4 hPa 0,0 l/m 0,0 km/h (0 Bft) W-SW 247 12,8 C 14,1 C 0,0 km/h (0 Bft)
04.07.2013 07:25 13,7 C 95 % 1021,5 hPa 0,0 l/m 0,2 km/h (0 Bft) SW 225 12,9 C 14,2 C 2,6 km/h (1 Bft)
04.07.2013 07:30 13,8 C 95 % 1021,5 hPa 0,0 l/m 0,3 km/h (0 Bft) SW 225 13,0 C 14,3 C 0,0 km/h (0 Bft)
04.07.2013 07:35 13,7 C 95 % 1021,5 hPa 0,0 l/m 1,3 km/h (1 Bft) W-SW 247 12,9 C 14,3 C 4,8 km/h (1 Bft)
04.07.2013 07:40 13,6 C 95 % 1021,5 hPa 0,0 l/m 1,9 km/h (1 Bft) SW 225 12,8 C 14,1 C 1,6 km/h (1 Bft)
04.07.2013 07:45 13,6 C 95 % 1021,6 hPa 0,0 l/m 2,1 km/h (1 Bft) S-SW 202 12,8 C 14,1 C 2,3 km/h (1 Bft)
04.07.2013 07:50 13,7 C 95 % 1021,6 hPa 0,0 l/m 1,0 km/h (0 Bft) SW 225 12,9 C 14,2 C 0,0 km/h (0 Bft)
04.07.2013 07:55 13,7 C 95 % 1021,6 hPa 0,0 l/m 0,5 km/h (0 Bft) W-SW 247 12,9 C 14,3 C 0,0 km/h (0 Bft)
04.07.2013 08:00 13,7 C 95 % 1021,6 hPa 0,0 l/m 0,0 km/h (0 Bft) O-NO 67 12,9 C 14,4 C 0,0 km/h (0 Bft)
04.07.2013 08:05 13,6 C 95 % 1022,0 hPa 0,0 l/m 0,0 km/h (0 Bft) NO 45 12,8 C 14,4 C 0,0 km/h (0 Bft)
04.07.2013 08:10 13,8 C 95 % 1022,0 hPa 0,0 l/m 0,0 km/h (0 Bft) O 90 13,0 C 14,6 C 0,0 km/h (0 Bft)
04.07.2013 08:15 14,1 C 95 % 1022,0 hPa 0,0 l/m 0,0 km/h (0 Bft) NO 45 13,3 C 14,8 C 0,0 km/h (0 Bft)
04.07.2013 08:20 14,4 C 95 % 1022,0 hPa 0,0 l/m 0,0 km/h (0 Bft) S 180 13,6 C 15,1 C 0,0 km/h (0 Bft)
04.07.2013 08:25 14,4 C 95 % 1022,2 hPa 0,0 l/m 0,0 km/h (0 Bft) O-SO 112 13,6 C 15,4 C 0,0 km/h (0 Bft)
04.07.2013 08:30 14,6 C 95 % 1022,2 hPa 0,0 l/m 0,5 km/h (0 Bft) S-SW 202 13,8 C 15,7 C 2,3 km/h (1 Bft)
04.07.2013 08:35 14,7 C 95 % 1022,2 hPa 0,0 l/m 0,5 km/h (0 Bft) S-SO 157 13,9 C 15,8 C 0,0 km/h (0 Bft)
04.07.2013 08:40 14,7 C 95 % 1022,2 hPa 0,0 l/m 0,3 km/h (0 Bft) S-SO 157 13,9 C 15,9 C 0,0 km/h (0 Bft)
04.07.2013 08:45 14,7 C 95 % 1022,5 hPa 0,0 l/m 0,0 km/h (0 Bft) S-SO 157 13,9 C 16,1 C 0,0 km/h (0 Bft)
04.07.2013 08:50 14,9 C 95 % 1022,5 hPa 0,0 l/m 0,0 km/h (0 Bft) S 180 14,1 C 16,2 C 0,0 km/h (0 Bft)
04.07.2013 08:55 15,2 C 95 % 1022,5 hPa 0,0 l/m 0,2 km/h (0 Bft) O-SO 112 14,4 C 16,3 C 1,8 km/h (1 Bft)
04.07.2013 09:00 15,2 C 95 % 1022,5 hPa 0,0 l/m 0,3 km/h (0 Bft) N 360 14,4 C 16,3 C 0,0 km/h (0 Bft)
04.07.2013 09:05 15,4 C 95 % 1022,7 hPa 0,0 l/m 0,5 km/h (0 Bft) S 180 14,6 C 16,5 C 0,0 km/h (0 Bft)
04.07.2013 09:10 15,7 C 95 % 1022,7 hPa 0,0 l/m 0,8 km/h (0 Bft) W-SW 247 14,9 C 16,8 C 6,8 km/h (2 Bft)
04.07.2013 09:15 15,7 C 95 % 1022,7 hPa 0,0 l/m 1,4 km/h (1 Bft) S-SW 202 14,9 C 16,9 C 2,6 km/h (1 Bft)
04.07.2013 09:20 15,8 C 94 % 1022,7 hPa 0,0 l/m 2,1 km/h (1 Bft) S-SW 202 14,8 C 17,1 C 4,2 km/h (1 Bft)
04.07.2013 09:25 16,0 C 93 % 1023,2 hPa 0,0 l/m 1,6 km/h (1 Bft) SW 225 14,9 C 17,3 C 2,1 km/h (1 Bft)
04.07.2013 09:30 16,6 C 93 % 1023,2 hPa 0,0 l/m 2,3 km/h (1 Bft) N 360 15,5 C 17,8 C 6,1 km/h (2 Bft)
04.07.2013 09:35 16,4 C 92 % 1023,2 hPa 0,0 l/m 2,1 km/h (1 Bft) W-SW 247 15,1 C 18,0 C 3,9 km/h (1 Bft)
04.07.2013 09:40 16,7 C 92 % 1023,2 hPa 0,0 l/m 1,9 km/h (1 Bft) O-SO 112 15,4 C 18,2 C 0,0 km/h (0 Bft)
04.07.2013 09:45 16,6 C 92 % 1023,4 hPa 0,0 l/m 1,6 km/h (1 Bft) W-SW 247 15,3 C 18,3 C 3,4 km/h (1 Bft)
04.07.2013 09:50 16,6 C 90 % 1023,4 hPa 0,0 l/m 0,6 km/h (0 Bft) O 90 15,0 C 18,7 C 0,0 km/h (0 Bft)
04.07.2013 09:55 16,7 C 90 % 1023,4 hPa 0,0 l/m 1,0 km/h (0 Bft) SO 135 15,0 C 18,9 C 3,4 km/h (1 Bft)
04.07.2013 10:00 17,0 C 89 % 1023,4 hPa 0,0 l/m 1,9 km/h (1 Bft) W-SW 247 15,2 C 18,8 C 1,9 km/h (1 Bft)
04.07.2013 10:05 16,9 C 88 % 1023,7 hPa 0,0 l/m 2,1 km/h (1 Bft) W-SW 247 14,9 C 18,9 C 0,0 km/h (0 Bft)
04.07.2013 10:10 17,5 C 87 % 1023,7 hPa 0,0 l/m 1,1 km/h (1 Bft) S-SO 157 15,3 C 19,2 C 0,0 km/h (0 Bft)
04.07.2013 10:15 18,4 C 87 % 1023,7 hPa 0,0 l/m 1,0 km/h (0 Bft) S 180 16,2 C 19,6 C 4,2 km/h (1 Bft)
04.07.2013 10:20 19,4 C 82 % 1023,7 hPa 0,0 l/m 1,9 km/h (1 Bft) S-SW 202 16,2 C 21,0 C 3,4 km/h (1 Bft)
04.07.2013 10:25 19,4 C 82 % 1023,7 hPa 0,0 l/m 2,3 km/h (1 Bft) S 180 16,2 C 21,7 C 2,9 km/h (1 Bft)
04.07.2013 10:30 19,0 C 83 % 1023,7 hPa 0,0 l/m 2,3 km/h (1 Bft) W 270 16,0 C 21,9 C 0,0 km/h (0 Bft)
04.07.2013 10:35 18,5 C 83 % 1023,7 hPa 0,0 l/m 1,9 km/h (1 Bft) S 180 15,6 C 21,6 C 1,8 km/h (1 Bft)
04.07.2013 10:40 19,1 C 80 % 1023,7 hPa 0,0 l/m 0,8 km/h (0 Bft) W-SW 247 15,6 C 21,4 C 0,0 km/h (0 Bft)
04.07.2013 10:45 20,9 C 79 % 1024,0 hPa 0,0 l/m 0,6 km/h (0 Bft) S-SW 202 17,1 C 22,9 C 3,1 km/h (1 Bft)
04.07.2013 10:50 20,4 C 75 % 1024,0 hPa 0,0 l/m 1,6 km/h (1 Bft) O-NO 67 15,8 C 24,2 C 0,0 km/h (0 Bft)
04.07.2013 10:55 20,6 C 76 % 1024,0 hPa 0,0 l/m 2,6 km/h (1 Bft) SO 135 16,2 C 24,1 C 5,6 km/h (1 Bft)
04.07.2013 11:00 22,0 C 72 % 1024,0 hPa 0,0 l/m 2,9 km/h (1 Bft) S-SW 202 16,7 C 24,3 C 8,0 km/h (2 Bft)
04.07.2013 11:05 23,3 C 67 % 1024,1 hPa 0,0 l/m 3,5 km/h (1 Bft) W-SW 247 16,8 C 25,2 C 3,7 km/h (1 Bft)
04.07.2013 11:10 21,9 C 63 % 1024,1 hPa 0,0 l/m 3,9 km/h (1 Bft) SO 135 14,5 C 26,1 C 7,7 km/h (2 Bft)
04.07.2013 11:15 22,1 C 73 % 1024,1 hPa 0,0 l/m 3,7 km/h (1 Bft) O 90 17,0 C 25,5 C 1,9 km/h (1 Bft)
04.07.2013 11:20 22,9 C 69 % 1024,1 hPa 0,0 l/m 2,7 km/h (1 Bft) S-SW 202 16,9 C 25,1 C 3,9 km/h (1 Bft)
04.07.2013 11:25 23,6 C 62 % 1024,2 hPa 0,0 l/m 2,7 km/h (1 Bft) S 180 15,9 C 25,7 C 3,7 km/h (1 Bft)
04.07.2013 11:30 24,4 C 58 % 1024,2 hPa 0,0 l/m 3,9 km/h (1 Bft) SO 135 15,6 C 26,0 C 8,2 km/h (2 Bft)
04.07.2013 11:35 24,6 C 58 % 1024,2 hPa 0,0 l/m 3,7 km/h (1 Bft) SW 225 15,8 C 26,1 C 4,8 km/h (1 Bft)
04.07.2013 11:40 23,5 C 58 % 1024,2 hPa 0,0 l/m 3,7 km/h (1 Bft) S-SW 202 14,7 C 26,0 C 6,9 km/h (2 Bft)
04.07.2013 11:45 25,4 C 56 % 1024,4 hPa 0,0 l/m 4,3 km/h (1 Bft) SO 135 16,0 C 25,7 C 2,7 km/h (1 Bft)
04.07.2013 11:50 24,5 C 51 % 1024,4 hPa 0,0 l/m 4,2 km/h (1 Bft) W-SW 247 13,7 C 26,1 C 8,5 km/h (2 Bft)
04.07.2013 11:55 24,6 C 47 % 1024,4 hPa 0,0 l/m 3,9 km/h (1 Bft) NO 45 12,5 C 26,1 C 2,4 km/h (1 Bft)
04.07.2013 12:00 22,6 C 53 % 1024,4 hPa 0,0 l/m 4,3 km/h (1 Bft) S 180 12,5 C 25,9 C 9,7 km/h (2 Bft)
04.07.2013 12:05 23,5 C 52 % 1024,5 hPa 0,0 l/m 4,8 km/h (1 Bft) S 180 13,1 C 24,7 C 6,0 km/h (2 Bft)
04.07.2013 12:10 24,0 C 49 % 1024,5 hPa 0,0 l/m 5,1 km/h (1 Bft) S-SW 202 12,6 C 23,8 C 10,6 km/h (2 Bft)
04.07.2013 12:15 22,7 C 55 % 1024,5 hPa 0,0 l/m 5,1 km/h (1 Bft) SO 135 13,2 C 23,9 C 7,2 km/h (2 Bft)
04.07.2013 12:20 23,6 C 53 % 1024,5 hPa 0,0 l/m 4,5 km/h (1 Bft) S-SO 157 13,4 C 23,4 C 4,3 km/h (1 Bft)
04.07.2013 12:25 25,5 C 48 % 1024,6 hPa 0,0 l/m 3,7 km/h (1 Bft) S 180 13,7 C 24,4 C 4,5 km/h (1 Bft)
04.07.2013 12:30 24,4 C 49 % 1024,6 hPa 0,0 l/m 4,2 km/h (1 Bft) S-SW 202 13,0 C 26,1 C 12,2 km/h (2 Bft)
04.07.2013 12:35 22,6 C 55 % 1024,6 hPa 0,0 l/m 5,3 km/h (1 Bft) S-SW 202 13,1 C 25,2 C 8,2 km/h (2 Bft)
04.07.2013 12:40 21,5 C 57 % 1024,6 hPa 0,0 l/m 5,6 km/h (1 Bft) S 180 12,6 C 23,6 C 7,1 km/h (2 Bft)
04.07.2013 12:45 23,0 C 54 % 1024,8 hPa 0,0 l/m 5,3 km/h (1 Bft) S 180 13,2 C 23,1 C 4,7 km/h (1 Bft)
04.07.2013 12:50 24,5 C 49 % 1024,8 hPa 0,0 l/m 6,8 km/h (2 Bft) W 270 13,1 C 24,4 C 11,6 km/h (2 Bft)
04.07.2013 12:55 25,1 C 47 % 1024,8 hPa 0,0 l/m 7,9 km/h (2 Bft) W-SW 247 13,0 C 24,8 C 12,7 km/h (3 Bft)
04.07.2013 13:00 25,3 C 45 % 1024,8 hPa 0,0 l/m 8,7 km/h (2 Bft) S-SW 202 12,5 C 25,3 C 16,4 km/h (3 Bft)
04.07.2013 13:05 24,8 C 47 % 1025,1 hPa 0,0 l/m 8,7 km/h (2 Bft) S 180 12,7 C 25,4 C 9,8 km/h (2 Bft)
04.07.2013 13:10 23,5 C 50 % 1025,1 hPa 0,0 l/m 7,6 km/h (2 Bft) S 180 12,5 C 24,5 C 5,3 km/h (1 Bft)
04.07.2013 13:15 23,3 C 52 % 1025,1 hPa 0,0 l/m 7,1 km/h (2 Bft) S 180 12,9 C 24,3 C 8,4 km/h (2 Bft)
04.07.2013 13:20 22,4 C 57 % 1025,1 hPa 0,0 l/m 6,0 km/h (2 Bft) S 180 13,5 C 23,8 C 7,9 km/h (2 Bft)
04.07.2013 13:25 21,8 C 58 % 1024,9 hPa 0,0 l/m 5,6 km/h (1 Bft) W-SW 247 13,2 C 23,1 C 7,7 km/h (2 Bft)
04.07.2013 13:30 21,5 C 59 % 1024,9 hPa 0,0 l/m 5,3 km/h (1 Bft) S 180 13,1 C 22,4 C 7,2 km/h (2 Bft)
04.07.2013 13:35 21,7 C 59 % 1024,9 hPa 0,0 l/m 5,3 km/h (1 Bft) W-SW 247 13,3 C 22,1 C 3,5 km/h (1 Bft)
04.07.2013 13:40 21,9 C 59 % 1024,9 hPa 0,0 l/m 4,7 km/h (1 Bft) S-SO 157 13,5 C 22,4 C 8,4 km/h (2 Bft)
04.07.2013 13:45 21,5 C 59 % 1024,8 hPa 0,0 l/m 5,3 km/h (1 Bft) S-SO 157 13,1 C 22,3 C 11,9 km/h (2 Bft)
04.07.2013 13:50 23,5 C 52 % 1024,8 hPa 0,0 l/m 7,4 km/h (2 Bft) S-SO 157 13,1 C 22,0 C 9,0 km/h (2 Bft)
04.07.2013 13:55 23,9 C 51 % 1024,8 hPa 0,0 l/m 7,1 km/h (2 Bft) S 180 13,1 C 23,1 C 8,2 km/h (2 Bft)
04.07.2013 14:00 24,5 C 49 % 1024,8 hPa 0,0 l/m 6,0 km/h (2 Bft) W-SW 247 13,1 C 24,3 C 10,5 km/h (2 Bft)
04.07.2013 14:05 24,3 C 51 % 1024,9 hPa 0,0 l/m 6,1 km/h (2 Bft) W 270 13,5 C 24,6 C 7,9 km/h (2 Bft)
04.07.2013 14:10 24,8 C 48 % 1024,9 hPa 0,0 l/m 6,9 km/h (2 Bft) S-SW 202 13,0 C 24,9 C 6,9 km/h (2 Bft)
04.07.2013 14:15 23,6 C 51 % 1024,9 hPa 0,0 l/m 6,8 km/h (2 Bft) S 180 12,9 C 25,0 C 5,3 km/h (1 Bft)
04.07.2013 14:20 25,0 C 50 % 1024,9 hPa 0,0 l/m 6,6 km/h (2 Bft) S-SW 202 13,8 C 25,0 C 13,8 km/h (3 Bft)
04.07.2013 14:25 23,2 C 54 % 1025,3 hPa 0,0 l/m 7,4 km/h (2 Bft) SW 225 13,4 C 23,9 C 6,1 km/h (2 Bft)
04.07.2013 14:30 23,3 C 54 % 1025,3 hPa 0,0 l/m 7,4 km/h (2 Bft) SW 225 13,5 C 23,6 C 5,5 km/h (1 Bft)
04.07.2013 14:35 23,2 C 54 % 1025,3 hPa 0,0 l/m 6,8 km/h (2 Bft) S-SW 202 13,4 C 23,7 C 11,6 km/h (2 Bft)
04.07.2013 14:40 25,2 C 49 % 1025,3 hPa 0,0 l/m 7,1 km/h (2 Bft) S 180 13,7 C 24,4 C 9,2 km/h (2 Bft)
04.07.2013 14:45 25,9 C 47 % 1025,1 hPa 0,0 l/m 6,6 km/h (2 Bft) S-SO 157 13,7 C 25,2 C 4,5 km/h (1 Bft)
04.07.2013 14:50 25,4 C 46 % 1025,1 hPa 0,0 l/m 6,6 km/h (2 Bft) W 270 12,9 C 26,1 C 6,3 km/h (2 Bft)
04.07.2013 14:55 25,2 C 48 % 1025,1 hPa 0,0 l/m 6,9 km/h (2 Bft) S 180 13,4 C 25,9 C 7,7 km/h (2 Bft)
04.07.2013 15:00 24,4 C 47 % 1025,1 hPa 0,0 l/m 7,6 km/h (2 Bft) S-SW 202 12,3 C 25,6 C 6,9 km/h (2 Bft)
04.07.2013 15:05 24,5 C 47 % 1025,2 hPa 0,0 l/m 7,4 km/h (2 Bft) S-SW 202 12,4 C 25,4 C 10,0 km/h (2 Bft)
04.07.2013 15:10 24,9 C 49 % 1025,2 hPa 0,0 l/m 6,3 km/h (2 Bft) S-SW 202 13,4 C 25,7 C 5,3 km/h (1 Bft)
04.07.2013 15:15 24,9 C 48 % 1025,2 hPa 0,0 l/m 5,3 km/h (1 Bft) W-NW 292 13,1 C 26,0 C 2,9 km/h (1 Bft)
04.07.2013 15:20 25,6 C 46 % 1025,2 hPa 0,0 l/m 4,8 km/h (1 Bft) S-SW 202 13,1 C 26,7 C 5,8 km/h (2 Bft)
04.07.2013 15:25 25,4 C 47 % 1025,2 hPa 0,0 l/m 5,8 km/h (2 Bft) S-SO 157 13,3 C 27,2 C 9,0 km/h (2 Bft)
04.07.2013 15:30 23,1 C 51 % 1025,2 hPa 0,0 l/m 6,8 km/h (2 Bft) S 180 12,4 C 25,6 C 4,5 km/h (1 Bft)
04.07.2013 15:35 22,5 C 55 % 1025,2 hPa 0,0 l/m 5,8 km/h (2 Bft) W-SW 247 13,0 C 24,6 C 3,2 km/h (1 Bft)
04.07.2013 15:40 22,0 C 56 % 1025,2 hPa 0,0 l/m 5,0 km/h (1 Bft) S 180 12,8 C 23,3 C 6,8 km/h (2 Bft)
04.07.2013 15:45 21,7 C 58 % 1025,4 hPa 0,0 l/m 5,0 km/h (1 Bft) S-SW 202 13,1 C 22,9 C 7,7 km/h (2 Bft)
04.07.2013 15:50 21,7 C 59 % 1025,4 hPa 0,0 l/m 4,8 km/h (1 Bft) S-SW 202 13,3 C 22,3 C 6,6 km/h (2 Bft)
04.07.2013 15:55 21,5 C 59 % 1025,4 hPa 0,0 l/m 5,1 km/h (1 Bft) S-SW 202 13,1 C 22,1 C 5,8 km/h (2 Bft)
04.07.2013 16:00 21,7 C 60 % 1025,4 hPa 0,0 l/m 4,3 km/h (1 Bft) S 180 13,6 C 22,0 C 2,6 km/h (1 Bft)
04.07.2013 16:05 21,7 C 60 % 1025,4 hPa 0,0 l/m 3,5 km/h (1 Bft) S 180 13,6 C 22,2 C 2,3 km/h (1 Bft)
04.07.2013 16:10 21,8 C 60 % 1025,4 hPa 0,0 l/m 3,5 km/h (1 Bft) S-SO 157 13,7 C 22,2 C 4,5 km/h (1 Bft)
04.07.2013 16:15 21,7 C 60 % 1025,4 hPa 0,0 l/m 4,0 km/h (1 Bft) SO 135 13,6 C 22,2 C 4,2 km/h (1 Bft)
04.07.2013 16:20 21,6 C 61 % 1025,4 hPa 0,0 l/m 3,5 km/h (1 Bft) S 180 13,7 C 22,2 C 4,2 km/h (1 Bft)
04.07.2013 16:25 21,5 C 62 % 1025,5 hPa 0,0 l/m 3,4 km/h (1 Bft) S 180 13,9 C 22,2 C 4,5 km/h (1 Bft)
04.07.2013 16:30 21,5 C 63 % 1025,5 hPa 0,0 l/m 3,2 km/h (1 Bft) SO 135 14,2 C 22,1 C 2,4 km/h (1 Bft)
04.07.2013 16:35 21,4 C 63 % 1025,5 hPa 0,0 l/m 2,9 km/h (1 Bft) S-SO 157 14,1 C 22,2 C 5,5 km/h (1 Bft)
04.07.2013 16:40 21,1 C 63 % 1025,5 hPa 0,0 l/m 2,9 km/h (1 Bft) S-SW 202 13,8 C 21,9 C 3,9 km/h (1 Bft)
04.07.2013 16:45 21,1 C 63 % 1025,2 hPa 0,0 l/m 3,1 km/h (1 Bft) S 180 13,8 C 21,8 C 4,8 km/h (1 Bft)
04.07.2013 16:50 20,9 C 63 % 1025,2 hPa 0,0 l/m 2,6 km/h (1 Bft) O-SO 112 13,6 C 21,7 C 0,0 km/h (0 Bft)
04.07.2013 16:55 20,7 C 63 % 1025,2 hPa 0,0 l/m 2,3 km/h (1 Bft) S 180 13,4 C 21,7 C 2,1 km/h (1 Bft)
04.07.2013 17:00 20,6 C 64 % 1025,2 hPa 0,0 l/m 1,4 km/h (1 Bft) S 180 13,5 C 21,5 C 0,0 km/h (0 Bft)
04.07.2013 17:05 20,3 C 65 % 1025,0 hPa 0,0 l/m 1,3 km/h (1 Bft) S 180 13,5 C 21,4 C 1,8 km/h (1 Bft)
04.07.2013 17:10 19,8 C 67 % 1025,0 hPa 0,0 l/m 2,3 km/h (1 Bft) W-SW 247 13,5 C 20,9 C 5,1 km/h (1 Bft)
04.07.2013 17:15 19,7 C 67 % 1025,0 hPa 0,0 l/m 2,7 km/h (1 Bft) S 180 13,4 C 20,5 C 4,0 km/h (1 Bft)
04.07.2013 17:20 19,6 C 68 % 1025,0 hPa 0,0 l/m 3,2 km/h (1 Bft) SW 225 13,5 C 20,2 C 6,3 km/h (2 Bft)
04.07.2013 17:25 19,6 C 68 % 1024,9 hPa 0,0 l/m 3,7 km/h (1 Bft) SW 225 13,5 C 20,2 C 4,5 km/h (1 Bft)
04.07.2013 17:30 19,9 C 68 % 1024,9 hPa 0,0 l/m 3,4 km/h (1 Bft) S-SO 157 13,8 C 20,3 C 3,9 km/h (1 Bft)
04.07.2013 17:35 20,0 C 67 % 1024,9 hPa 0,0 l/m 3,2 km/h (1 Bft) W-SW 247 13,7 C 20,5 C 4,3 km/h (1 Bft)
04.07.2013 17:40 20,3 C 67 % 1024,9 hPa 0,0 l/m 3,4 km/h (1 Bft) SW 225 14,0 C 20,7 C 4,0 km/h (1 Bft)
04.07.2013 17:45 20,1 C 64 % 1025,3 hPa 0,0 l/m 3,7 km/h (1 Bft) S 180 13,1 C 20,9 C 6,6 km/h (2 Bft)
04.07.2013 17:50 20,1 C 65 % 1025,3 hPa 0,0 l/m 4,7 km/h (1 Bft) W-SW 247 13,3 C 20,8 C 5,8 km/h (2 Bft)
04.07.2013 17:55 20,2 C 65 % 1025,3 hPa 0,0 l/m 4,5 km/h (1 Bft) S-SW 202 13,4 C 20,8 C 5,3 km/h (1 Bft)
04.07.2013 18:00 20,2 C 62 % 1025,3 hPa 0,0 l/m 4,0 km/h (1 Bft) W 270 12,7 C 21,0 C 4,0 km/h (1 Bft)
04.07.2013 18:05 20,4 C 64 % 1025,6 hPa 0,0 l/m 4,2 km/h (1 Bft) S-SW 202 13,4 C 21,0 C 5,3 km/h (1 Bft)
04.07.2013 18:10 20,2 C 65 % 1025,6 hPa 0,0 l/m 4,0 km/h (1 Bft) W 270 13,4 C 20,9 C 3,9 km/h (1 Bft)
04.07.2013 18:15 20,0 C 65 % 1025,6 hPa 0,0 l/m 4,0 km/h (1 Bft) W-SW 247 13,2 C 20,7 C 5,0 km/h (1 Bft)
04.07.2013 18:20 19,7 C 66 % 1025,6 hPa 0,0 l/m 4,0 km/h (1 Bft) O-NO 67 13,2 C 20,3 C 5,0 km/h (1 Bft)
04.07.2013 18:25 19,5 C 66 % 1025,3 hPa 0,0 l/m 4,2 km/h (1 Bft) SW 225 13,0 C 20,1 C 6,8 km/h (2 Bft)
04.07.2013 18:30 19,4 C 68 % 1025,3 hPa 0,0 l/m 3,7 km/h (1 Bft) W-SW 247 13,3 C 19,9 C 5,1 km/h (1 Bft)
04.07.2013 18:35 19,4 C 68 % 1025,3 hPa 0,0 l/m 3,2 km/h (1 Bft) W-SW 247 13,3 C 19,8 C 2,6 km/h (1 Bft)
04.07.2013 18:40 19,2 C 69 % 1025,3 hPa 0,0 l/m 2,7 km/h (1 Bft) S 180 13,4 C 19,6 C 0,0 km/h (0 Bft)
04.07.2013 18:45 19,1 C 69 % 1025,3 hPa 0,0 l/m 2,6 km/h (1 Bft) S 180 13,3 C 19,5 C 1,8 km/h (1 Bft)
04.07.2013 18:50 19,3 C 70 % 1025,3 hPa 0,0 l/m 1,9 km/h (1 Bft) S 180 13,7 C 19,6 C 2,4 km/h (1 Bft)
04.07.2013 18:55 19,2 C 70 % 1025,3 hPa 0,0 l/m 1,6 km/h (1 Bft) SW 225 13,6 C 19,6 C 3,2 km/h (1 Bft)
04.07.2013 19:00 19,3 C 70 % 1025,3 hPa 0,0 l/m 2,4 km/h (1 Bft) S-SW 202 13,7 C 19,9 C 4,0 km/h (1 Bft)
04.07.2013 19:05 20,0 C 68 % 1025,1 hPa 0,0 l/m 2,9 km/h (1 Bft) S 180 13,9 C 21,6 C 7,2 km/h (2 Bft)
04.07.2013 19:10 20,5 C 66 % 1025,1 hPa 0,0 l/m 3,9 km/h (1 Bft) S-SO 157 13,9 C 23,5 C 8,5 km/h (2 Bft)
04.07.2013 19:15 20,7 C 64 % 1025,1 hPa 0,0 l/m 4,3 km/h (1 Bft) S 180 13,6 C 24,2 C 3,5 km/h (1 Bft)
04.07.2013 19:20 20,1 C 64 % 1025,1 hPa 0,0 l/m 3,5 km/h (1 Bft) W-SW 247 13,1 C 23,5 C 1,6 km/h (1 Bft)
04.07.2013 19:25 19,9 C 66 % 1025,6 hPa 0,0 l/m 2,7 km/h (1 Bft) S-SO 157 13,4 C 22,5 C 2,7 km/h (1 Bft)
04.07.2013 19:30 19,9 C 66 % 1025,6 hPa 0,0 l/m 2,1 km/h (1 Bft) S 180 13,4 C 21,6 C 2,3 km/h (1 Bft)
04.07.2013 19:35 20,0 C 65 % 1025,6 hPa 0,0 l/m 1,9 km/h (1 Bft) S 180 13,2 C 21,9 C 3,4 km/h (1 Bft)
04.07.2013 19:40 19,7 C 66 % 1025,6 hPa 0,0 l/m 2,4 km/h (1 Bft) W-SW 247 13,2 C 21,5 C 3,5 km/h (1 Bft)
04.07.2013 19:45 19,5 C 65 % 1025,6 hPa 0,0 l/m 2,7 km/h (1 Bft) W-SW 247 12,7 C 21,0 C 4,5 km/h (1 Bft)
04.07.2013 19:50 19,2 C 66 % 1025,6 hPa 0,0 l/m 2,6 km/h (1 Bft) S-SO 157 12,7 C 20,3 C 0,0 km/h (0 Bft)
04.07.2013 19:55 19,1 C 67 % 1025,6 hPa 0,0 l/m 1,9 km/h (1 Bft) S-SW 202 12,8 C 20,0 C 0,0 km/h (0 Bft)
04.07.2013 20:00 18,9 C 67 % 1025,6 hPa 0,0 l/m 1,1 km/h (1 Bft) W-SW 247 12,6 C 19,7 C 1,6 km/h (1 Bft)
04.07.2013 20:05 18,8 C 68 % 1025,8 hPa 0,0 l/m 1,3 km/h (1 Bft) S 180 12,8 C 19,4 C 1,6 km/h (1 Bft)
04.07.2013 20:10 18,6 C 68 % 1025,8 hPa 0,0 l/m 0,6 km/h (0 Bft) S 180 12,6 C 19,2 C 0,0 km/h (0 Bft)
04.07.2013 20:15 18,5 C 68 % 1025,8 hPa 0,0 l/m 0,3 km/h (0 Bft) O-SO 112 12,5 C 19,1 C 0,0 km/h (0 Bft)
04.07.2013 20:20 18,1 C 69 % 1025,8 hPa 0,0 l/m 0,0 km/h (0 Bft) SO 135 12,3 C 18,9 C 0,0 km/h (0 Bft)
04.07.2013 20:25 17,9 C 70 % 1025,9 hPa 0,0 l/m 0,0 km/h (0 Bft) O-SO 112 12,3 C 18,7 C 0,0 km/h (0 Bft)
04.07.2013 20:30 17,7 C 71 % 1025,9 hPa 0,0 l/m 0,0 km/h (0 Bft) S 180 12,4 C 18,5 C 0,0 km/h (0 Bft)
04.07.2013 20:35 17,7 C 72 % 1025,9 hPa 0,0 l/m 0,0 km/h (0 Bft) S 180 12,6 C 18,4 C 0,0 km/h (0 Bft)
04.07.2013 20:40 17,6 C 73 % 1025,9 hPa 0,0 l/m 0,2 km/h (0 Bft) S 180 12,7 C 18,2 C 2,1 km/h (1 Bft)
04.07.2013 20:45 17,6 C 74 % 1026,1 hPa 0,0 l/m 1,0 km/h (0 Bft) S-SW 202 12,9 C 18,0 C 3,1 km/h (1 Bft)
04.07.2013 20:50 17,5 C 74 % 1026,1 hPa 0,0 l/m 1,0 km/h (0 Bft) S 180 12,8 C 17,7 C 0,0 km/h (0 Bft)
04.07.2013 20:55 17,3 C 75 % 1026,1 hPa 0,0 l/m 0,3 km/h (0 Bft) S 180 12,8 C 17,6 C 0,0 km/h (0 Bft)
04.07.2013 21:00 17,2 C 75 % 1026,1 hPa 0,0 l/m 0,6 km/h (0 Bft) S 180 12,7 C 17,4 C 1,6 km/h (1 Bft)
04.07.2013 21:05 17,0 C 75 % 1026,4 hPa 0,0 l/m 1,4 km/h (1 Bft) S 180 12,5 C 17,2 C 3,1 km/h (1 Bft)
04.07.2013 21:10 16,8 C 75 % 1026,4 hPa 0,0 l/m 1,9 km/h (1 Bft) O-SO 112 12,3 C 17,0 C 1,6 km/h (1 Bft)
04.07.2013 21:15 16,7 C 76 % 1026,4 hPa 0,0 l/m 2,1 km/h (1 Bft) S 180 12,4 C 17,0 C 3,4 km/h (1 Bft)
04.07.2013 21:20 16,7 C 76 % 1026,4 hPa 0,0 l/m 2,1 km/h (1 Bft) O-NO 67 12,4 C 16,8 C 1,8 km/h (1 Bft)
04.07.2013 21:25 16,5 C 78 % 1026,6 hPa 0,0 l/m 2,9 km/h (1 Bft) S-SO 157 12,6 C 16,7 C 4,0 km/h (1 Bft)
04.07.2013 21:30 15,6 C 84 % 1026,6 hPa 0,0 l/m 2,4 km/h (1 Bft) O-SO 112 12,9 C 15,8 C 1,6 km/h (1 Bft)
04.07.2013 21:35 15,1 C 87 % 1026,6 hPa 0,0 l/m 1,9 km/h (1 Bft) O 90 13,0 C 15,3 C 2,9 km/h (1 Bft)
04.07.2013 21:40 14,9 C 89 % 1026,6 hPa 0,7 l/m 2,6 km/h (1 Bft) NO 45 13,1 C 15,0 C 4,0 km/h (1 Bft)
04.07.2013 21:45 14,8 C 90 % 1026,7 hPa 2,1 l/m 3,5 km/h (1 Bft) O-NO 67 13,2 C 14,9 C 3,9 km/h (1 Bft)
04.07.2013 21:50 14,8 C 91 % 1026,7 hPa 0,7 l/m 3,5 km/h (1 Bft) O 90 13,3 C 14,8 C 2,3 km/h (1 Bft)
04.07.2013 21:55 14,7 C 91 % 1026,7 hPa 0,0 l/m 2,6 km/h (1 Bft) O-NO 67 13,2 C 14,8 C 1,8 km/h (1 Bft)
04.07.2013 22:00 14,7 C 92 % 1026,7 hPa 0,0 l/m 2,4 km/h (1 Bft) NO 45 13,4 C 14,8 C 3,1 km/h (1 Bft)
04.07.2013 22:05 14,7 C 92 % 1026,9 hPa 0,0 l/m 2,3 km/h (1 Bft) O 90 13,4 C 14,8 C 2,1 km/h (1 Bft)
04.07.2013 22:10 14,8 C 92 % 1026,9 hPa 0,0 l/m 1,4 km/h (1 Bft) O 90 13,5 C 14,8 C 1,8 km/h (1 Bft)
04.07.2013 22:15 14,8 C 92 % 1026,9 hPa 0,0 l/m 1,3 km/h (1 Bft) O-NO 67 13,5 C 14,8 C 1,8 km/h (1 Bft)
04.07.2013 22:20 14,8 C 93 % 1026,9 hPa 0,0 l/m 1,3 km/h (1 Bft) O-NO 67 13,7 C 14,8 C 2,6 km/h (1 Bft)
04.07.2013 22:25 14,8 C 93 % 1027,2 hPa 0,0 l/m 1,4 km/h (1 Bft) O-NO 67 13,7 C 14,8 C 1,6 km/h (1 Bft)
04.07.2013 22:30 14,7 C 93 % 1027,2 hPa 0,0 l/m 1,4 km/h (1 Bft) NO 45 13,6 C 14,8 C 2,3 km/h (1 Bft)
04.07.2013 22:35 14,7 C 93 % 1027,2 hPa 0,0 l/m 1,6 km/h (1 Bft) NO 45 13,6 C 14,8 C 1,6 km/h (1 Bft)
04.07.2013 22:40 14,7 C 93 % 1027,2 hPa 0,0 l/m 1,4 km/h (1 Bft) O 90 13,6 C 14,8 C 1,8 km/h (1 Bft)
04.07.2013 22:45 14,7 C 93 % 1027,3 hPa 0,0 l/m 1,0 km/h (0 Bft) O 90 13,6 C 14,8 C 2,1 km/h (1 Bft)
04.07.2013 22:50 14,6 C 93 % 1027,3 hPa 0,0 l/m 0,6 km/h (0 Bft) N 360 13,5 C 14,8 C 0,0 km/h (0 Bft)
04.07.2013 22:55 14,6 C 93 % 1027,3 hPa 0,0 l/m 0,3 km/h (0 Bft) O-SO 112 13,5 C 14,7 C 0,0 km/h (0 Bft)
04.07.2013 23:00 14,6 C 93 % 1027,3 hPa 0,0 l/m 0,2 km/h (0 Bft) SO 135 13,5 C 14,6 C 1,8 km/h (1 Bft)
04.07.2013 23:05 14,6 C 93 % 1027,2 hPa 0,0 l/m 0,2 km/h (0 Bft) NO 45 13,5 C 14,6 C 0,0 km/h (0 Bft)
04.07.2013 23:10 14,7 C 94 % 1027,2 hPa 0,0 l/m 0,2 km/h (0 Bft) O 90 13,7 C 14,7 C 0,0 km/h (0 Bft)
04.07.2013 23:15 14,7 C 94 % 1027,2 hPa 0,0 l/m 0,0 km/h (0 Bft) NO 45 13,7 C 14,7 C 0,0 km/h (0 Bft)
04.07.2013 23:20 14,7 C 94 % 1027,2 hPa 0,0 l/m 0,0 km/h (0 Bft) O 90 13,7 C 14,7 C 1,9 km/h (1 Bft)
04.07.2013 23:25 14,7 C 94 % 1027,4 hPa 0,0 l/m 0,6 km/h (0 Bft) NO 45 13,7 C 14,7 C 1,9 km/h (1 Bft)
04.07.2013 23:30 14,7 C 94 % 1027,4 hPa 0,0 l/m 0,6 km/h (0 Bft) NO 45 13,7 C 14,7 C 0,0 km/h (0 Bft)
04.07.2013 23:35 14,7 C 94 % 1027,4 hPa 0,0 l/m 0,2 km/h (0 Bft) O 90 13,7 C 14,7 C 0,0 km/h (0 Bft)
04.07.2013 23:40 14,7 C 94 % 1027,4 hPa 0,0 l/m 0,0 km/h (0 Bft) N-NO 22 13,7 C 14,7 C 0,0 km/h (0 Bft)
04.07.2013 23:45 14,6 C 94 % 1027,4 hPa 0,0 l/m 0,2 km/h (0 Bft) NO 45 13,6 C 14,7 C 0,0 km/h (0 Bft)
04.07.2013 23:50 14,7 C 94 % 1027,4 hPa 0,0 l/m 0,5 km/h (0 Bft) S 180 13,7 C 14,6 C 2,4 km/h (1 Bft)
04.07.2013 23:55 14,6 C 94 % 1027,4 hPa 0,0 l/m 1,0 km/h (0 Bft) S-SW 202 13,6 C 14,6 C 1,9 km/h (1 Bft)
_ Min-Zeit 00:10 13:00 00:00 - 23:40 - - 00:10 00:25 23:45
Minimum _ 12,1 C 45 % 1020,1 hPa - 0,0 km/h (0 Bft) - - 11,3 C 12,1 C 0,0 km/h (0 Bft)
_ Max-Zeit 14:45 06:40 23:55 21:45 13:05 - - 10:45 15:25 13:00
Maximum _ 25,9 C 96 % 1027,4 hPa 2,1 l/m 8,7 km/h
S (2 Bft)
- - 17,1 C 27,2 C 16,4 km/h
S-SW (3 Bft)
Durchschnitt _ 17,2 C 79 % 1023,6 hPa #3,4 l/m 2,1 km/h (1 Bft) S - 13,1 C 17,8 C 2,8 km/h (1 Bft)